Regional Weather Roundup
Issued by NWS

Home | Current Version | Previous Version | Graphics & Text | Print | Product List | Glossary On
Versions: 1 2 3 4 5 6 7 8 9 10 11 12 13 14 15 16 17 18 19 20 21 22 23 24 25 26 27 28 29 30 31 32 33 34 35 36 37 38 39 40 41 42 43 44 45 46 47 48 49 50
000
ASUS43 KDTX 060610
RWRMI
MICHIGAN HOURLY REGIONAL WEATHER ROUNDUP
NATIONAL WEATHER SERVICE DETROIT/PONTIAC MI
200 AM EDT WED MAY 06 2015

NOTE: "FAIR" INDICATES FEW OR NO CLOUDS BELOW 12,000 FEET WITH NO
SIGNIFICANT WEATHER AND/OR OBSTRUCTION TO VISIBILITY.

MIZ047>049-052>055-059>063-066>070-074>076-081>083-060700-
SOUTHEAST LOWER MICHIGAN

CITY           SKY/WX    TMP DP  RH WIND       PRES   REMARKS
ADRIAN         CLOUDY    52  51  97 SE8       30.26F FOG
6HR MIN TEMP:  50; 6HR MAX TEMP:  52;

ALMA           MOCLDY    46  45  96 CALM      30.28S
ANN ARBOR      RAIN      52  50  93 S5        30.27S FOG
BAD AXE        PTCLDY    37  36  93 CALM      30.29F
CARO           PTCLDY    42  42  98 CALM      30.28S
DETROIT CITY   RAIN      50  48  93 E5        30.28S FOG
6HR MIN TEMP:  49; 6HR MAX TEMP:  50; 6HR PCP:  0.14;

DETROIT        LGT RAIN  52  50  93 CALM      30.27F FOG
6HR MIN TEMP:  51; 6HR MAX TEMP:  53; 6HR PCP:  0.69;

FLINT          CLOUDY    51  47  86 SE3       30.27F
6HR MIN TEMP:  51; 6HR MAX TEMP:  55;

GROSSE ILE     LGT RAIN  52  48  87 CALM      30.25F
HILLSDALE      CLOUDY    51  51 100 SE7       30.25S FOG
HOWELL         CLOUDY    52  51  97 E3        30.27R FOG
6HR MIN TEMP:  52; 6HR MAX TEMP:  52;


CITY           SKY/WX    TMP DP  RH WIND       PRES   REMARKS
JACKSON        CLOUDY    51  50  96 E6        30.25F
6HR MIN TEMP:  50; 6HR MAX TEMP:  51; 6HR PCP:  1.11;

LAMBERTVILLE   CLOUDY    52  50  93 CALM      30.28R FOG
LANSING        CLOUDY    52  50  93 E3        30.27F
6HR MIN TEMP:  51; 6HR MAX TEMP:  52;

LAPEER         FAIR      45  45 100 CALM      30.28S FOG
MASON          CLOUDY    51  49  94 E3        30.26F FOG
MONROE         CLOUDY    52  52 100 E5        30.25F FOG
PONTIAC        CLOUDY    50  45  83 E3        30.26F
6HR MIN TEMP:  50; 6HR MAX TEMP:  52;

PORT HOPE        N/A     38  35  89 CALM      30.28S
6HR MIN TEMP:  38; 6HR MAX TEMP:  42;

PORT HURON     MOCLDY    43  41  93 CALM      30.28F
TRI CITIES     PTCLDY    48  45  89 N5        30.28F
6HR MIN TEMP:  48; 6HR MAX TEMP:  58;

MIDLAND        FAIR      45  44  95 CALM      30.27F
TROY           CLOUDY    51  48  90 E3        30.29S
SAGINAW HB     PTCLDY    45  45 100 CALM      30.27F FOG
$$
MIZ043>046-050>051-056>058-064>065-071>073-077>080-060700-
SOUTHWEST LOWER MICHIGAN

CITY           SKY/WX    TMP DP  RH WIND       PRES   REMARKS
BATTLE CREEK   CLOUDY    51  50  96 E5        30.24F FOG
6HR MIN TEMP:  51; 6HR MAX TEMP:  52; 6HR PCP:  0.34;

BENTON HARBOR  MOCLDY    52  51  97 E6        30.21F
6HR MIN TEMP:  51; 6HR MAX TEMP:  53; 6HR PCP: TRACE;

BIG RAPIDS     CLOUDY    50  44  79 CALM      30.26S
6HR MIN TEMP:  50; 6HR MAX TEMP:  62;

COLDWATER      CLOUDY    51  50  97 SE3       30.24F FOG
6HR MIN TEMP:  51; 6HR MAX TEMP:  52;

FREMONT        MOCLDY    52  42  69 SE3       30.25S
HOLLAND        CLOUDY    53  50  89 E10       30.24S
6HR MIN TEMP:  53; 6HR MAX TEMP:  53; 6HR PCP: TRACE;

GRAND RAPIDS   CLOUDY    53  49  86 E8        30.25F
6HR MIN TEMP:  52; 6HR MAX TEMP:  54;

IONIA          CLOUDY    53  48  83 E8        30.25F
KALAMAZOO      MOCLDY    52  49  89 E3        30.24F FOG
6HR MIN TEMP:  52; 6HR MAX TEMP:  52; 6HR PCP:  0.03;

LUDINGTON      CLOUDY    51  46  82 CALM      30.26F
6HR MIN TEMP:  48; 6HR MAX TEMP:  56;

MARSHALL       CLOUDY    50  49  98 CALM      30.24F FOG
MOUNT PLEASANT CLOUDY    49  43  79 CALM      30.27S
6HR MIN TEMP:  48; 6HR MAX TEMP:  59;

MUSKEGON       CLOUDY    55  45  68 E6        30.24F
6HR MIN TEMP:  54; 6HR MAX TEMP:  61;

SOUTH HAVEN    MOCLDY    53  51  94 E6        30.22F FOG
$$
MIZ016>042-060700-
NORTHERN LOWER MICHIGAN

CITY           SKY/WX    TMP DP  RH WIND       PRES   REMARKS
ALPENA         CLEAR     35  33  92 CALM      30.30F
6HR MIN TEMP:  35; 6HR MAX TEMP:  56;

BEAVER ISLAND  CLEAR     42  34  71 SE7       30.28S
6HR MIN TEMP:  40; 6HR MAX TEMP:  57;

BELLAIRE       PTCLDY    42  36  77 CALM      30.28S
6HR MIN TEMP:  42; 6HR MAX TEMP:  65;

CADILLAC       MOCLDY    45  31  58 CALM      30.27S
CHARLEVOIX     CLEAR     45  34  65 SE5       30.30S
6HR MIN TEMP:  44; 6HR MAX TEMP:  53;

FRANKFORT      CLOUDY    48  33  55 CALM      30.26S
GAYLORD        CLEAR     44  29  55 CALM      30.29R
6HR MIN TEMP:  44; 6HR MAX TEMP:  64;

GRAYLING       CLEAR     38  32  79 CALM      30.30R
6HR MIN TEMP:  34; 6HR MAX TEMP:  63;

HARBOR SPRINGS CLEAR     47  32  56 CALM      30.29S
HOUGHTON LAKE  PTCLDY    39  37  92 CALM      30.29R
6HR MIN TEMP:  39; 6HR MAX TEMP:  62;

MANISTEE       CLOUDY    45  37  76 CALM      30.27S
OSCODA           N/A     32  30  94 CALM      30.30S
PELLSTON       CLEAR     37  30  75 N3        30.29S
6HR MIN TEMP:  35; 6HR MAX TEMP:  65;

ROGERS CITY    CLEAR     39  37  92 CALM      30.30F
TRAVERSE CITY  PTCLDY    43  35  73 W3        30.26S
6HR MIN TEMP:  40; 6HR MAX TEMP:  53;

$$
MIZ007>008-015-060700-
EASTERN UPPER MICHIGAN

CITY           SKY/WX    TMP DP  RH WIND       PRES   REMARKS
KINROSS        CLEAR     45  28  53 CALM      30.28F
6HR MIN TEMP:  45; 6HR MAX TEMP:  63;

MACKINAC ISLAN CLEAR     49  39  70 E6        30.28F
6HR MIN TEMP:  45; 6HR MAX TEMP:  61;

NEWBERRY       CLEAR     47  31  54 SW6       30.27F
6HR MIN TEMP:  44; 6HR MAX TEMP:  62;

S. S. MARIE    CLEAR     45  32  60 CALM      30.28F
6HR MIN TEMP:  44; 6HR MAX TEMP:  63;

MUNISING         N/A     42  32  67 S5        30.26F
6HR MIN TEMP:  42; 6HR MAX TEMP:  53;

$$
MIZ004>006-011>014-085-060700-
CENTRAL UPPER MICHIGAN

CITY           SKY/WX    TMP DP  RH WIND       PRES   REMARKS
MANISTIQUE     CLEAR     37  31  79 CALM      30.27S
6HR MIN TEMP:  37; 6HR MAX TEMP:  61;

ESCANABA       CLEAR     37  34  87 CALM      30.26S
6HR MIN TEMP:  37; 6HR MAX TEMP:  63;

MENOMINEE      CLOUDY    46  39  76 CALM      30.25S
6HR MIN TEMP:  46; 6HR MAX TEMP:  57;

SAWYER-GWINN   CLEAR     39  27  62 CALM      30.26S
6HR MIN TEMP:  39; 6HR MAX TEMP:  64;

$$
MIZ001>003-009>011-084-060700-
WESTERN UPPER MICHIGAN

CITY           SKY/WX    TMP DP  RH WIND       PRES   REMARKS
IRON MOUNTAIN  PTCLDY    38  30  73 CALM      30.25S
6HR MIN TEMP:  38; 6HR MAX TEMP:  64;

HOUGHTON       PTCLDY    45  28  51 SE5       30.22S
6HR MIN TEMP:  44; 6HR MAX TEMP:  56;

COPPER HARBOR    N/A     51  28  41 SW10G21   30.21S
6HR MIN TEMP:  47; 6HR MAX TEMP:  61;

IRONWOOD       PTCLDY    55  25  30 CALM      30.18S
6HR MIN TEMP:  55; 6HR MAX TEMP:  72;

$$

ABBREVIATIONS USED IN REMARKS
   TC - TEMPERATURE IN CELSIUS
  WCI - WIND CHILL INDEX
   HX - HEAT INDEX
  VSB - VISIBILITY



USA.gov is the U.S. government's official web portal to all federal, state and local government web resources and services.